Location: Ch�risy
(50.2331°N, 2.9131°E)
Time: 02:43:53
(UTC+00:00)

USA 229 DEB - Pass Details

Date: 17 January 2021
Orbit: 965 x 1247 km, 63.4° (Epoch: 23 February)

Event Time Altitude Azimuth Distance (km) Brightness Sun altitude
Rises 20:02:22 0° 316° (NW) 3,930 7.3 -35.3°
Reaches altitude 10° 20:04:59 10° 316° (NW) 3,009 6.6 -35.7°
Enters shadow 20:10:34 58° 318° (NW) 1,342 4.2 -36.6°
